Regional Weather Roundup
Issued by NWS

Home | Current Version | Previous Version | Graphics & Text | Print | Product List | Glossary On
Versions: 1 2 3 4 5 6 7 8 9 10 11 12 13 14 15 16 17 18 19 20 21 22 23 24 25 26 27 28 29 30 31 32 33 34 35 36 37 38 39 40 41 42 43 44 45 46 47 48 49 50
000
ASUS43 KMPX 281510
RWRMN
WEATHER ROUNDUP FOR MINNESOTA
NATIONAL WEATHER SERVICE TWIN CITIES/CHANHASSEN MN
1000 AM CDT THU APR 28 2016


NOTE: "FAIR" INDICATES FEW OR NO CLOUDS BELOW 12,000 FEET WITH NO
SIGNIFICANT WEATHER AND/OR OBSTRUCTIONS TO VISIBILITY. N/A MEANS
CURRENT SKY AND/OR WEATHER CONDITIONS ARE NOT AVAILABLE.

MNZ060>063-068>070-281600-
   Twin Cities Metro

CITY           SKY/WX    TMP DP  RH WIND       PRES   REMARKS
TWIN CITIES    LGT RAIN  38  32  79 NE14      29.96R
ST PAUL        LGT RAIN  37  32  82 NE10      29.99R
CRYSTAL        LGT RAIN  38  33  82 NE9       29.96S
BLAINE         LGT RAIN  37  36  93 NE13G18   29.97R
EDEN PRAIRIE   LGT RAIN  38  32  79 NE9       29.94R
SOUTH ST PAUL  LGT RAIN  37  35  93 NE8       29.96S
LAKE ELMO      MIX PCPN  36  34  93 NE14G20   29.98S
$$
MNZ001>005-007-008-013>017-022>024-027-028-281600-
   Northwest Minnesota

CITY           SKY/WX    TMP DP  RH WIND       PRES   REMARKS
BEMIDJI        CLOUDY    43  18  36 E12       30.09R
HALLOCK        CLOUDY    45  18  33 E12       30.16S
ROSEAU         CLOUDY    43  28  56 NE14      30.18R
WARROAD        CLOUDY    39  27  60 NE8G16    30.19S
THIEF RVR FALL PTSUNNY   45  21  39 NE13      30.14S
CROOKSTON      CLOUDY    46  19  34 E10       30.13R
FOSSTON        CLOUDY    43  19  39 NE10      30.10R
DETROIT LAKES  CLOUDY    43  19  39 E10       30.05S
MOORHEAD       CLOUDY    46  19  34 E6        30.07S
PARK RAPIDS    CLOUDY    45  13  27 E13G22    30.03S
MAHNOMEN       CLOUDY    44  19  36 E10       30.07S
$$
MNZ006-009>011-018-025>026-281600-
   North Central Minnesota

CITY           SKY/WX    TMP DP  RH WIND       PRES   REMARKS
BAUDETTE       CLOUDY    43  17  35 NE9       30.16S
FLAG ISLAND    CLOUDY    39  21  48 N12       30.19S
INTL FALLS     CLOUDY    42  20  41 E10       30.15S
WASKISH        PTSUNNY   45  21  39 NE9       30.13S
BIG FORK       CLOUDY    43  18  36 E9        30.10S
LONGVILLE      CLOUDY    45  16  31 NE10      30.05R
GRAND RAPIDS   CLOUDY    43  18  36 NE6       30.08R
CRANE LAKE     CLOUDY    41  19  42 CALM      30.16S
ORR            CLOUDY    43  16  33 CALM      30.10S
COOK           CLOUDY    43  19  39 E8        30.11S
WALKER         PTSUNNY   42  17  36 NE8       30.06S
$$
MNZ012-019>021-037-281600-
   Northeast Minnesota

CITY           SKY/WX    TMP DP  RH WIND       PRES   REMARKS
DULUTH         PTSUNNY   41  22  46 E14G24    30.06R
ELY            CLOUDY    43  18  36 NE8       30.10F
HIBBING        CLOUDY    42  19  39 E13       30.08R
EVELETH        CLOUDY    43  19  39 NE12      30.09R
DULUTH HARBOR  CLOUDY    39  36  87 NE25      30.08F
TWO HARBORS    CLOUDY    45  30  57 E14G21    30.07R
SILVER BAY     CLOUDY    43  27  52 NE13G23   30.08F
GRAND MARAIS     N/A     41  27  57 NE12G18   30.14F
G MARAIS ARPRT CLOUDY    37  19  48 NE13      30.12F
$$
MNZ029>031-032-039>041-046>048-054>057-064-281600-
   West Central Minnesota

CITY           SKY/WX    TMP DP  RH WIND       PRES   REMARKS
FERGUS FALLS   CLOUDY    41  25  52 NE10      30.01S
WHEATON        CLOUDY    43  32  65 NE7       30.04R
MORRIS         CLOUDY    39  28  65 NE8       29.99R
ALEXANDRIA     CLOUDY    41  24  51 NE12      29.99S
ELBOW LAKE     CLOUDY    41  23  48 NE8       30.01S
WADENA         CLOUDY    41  18  38 NE10G16   30.01S
GLENWOOD       CLOUDY    39  28  65 NE14      29.99R
APPLETON       CLOUDY    39  32  75 NE8       29.99R
BENSON         DRIZZLE   39  28  65 E8        29.98S
ORTONVILLE     RAIN      36  30  80 NE7       30.01R
MADISON        MIX PCPN  36  34  93 NE9       29.99R
WILLMAR        LGT SNOW  36  32  87 NE12      29.98R
$$
MNZ033>034-036-042>043-049>051-058-059-281600-
   Central Minnesota

CITY           SKY/WX    TMP DP  RH WIND       PRES   REMARKS
ST CLOUD       LGT RAIN  39  24  55 NE9G20    29.99R
SAUK CENTRE    CLOUDY    41  25  53 NE12G21   29.99R
PAYNESVILLE    CLOUDY    39  28  64 E12G17    29.98R
AITKIN         CLOUDY    46  14  27 NE10G17   30.02R
PINE RIVER     CLOUDY    43  19  39 E10       30.07R
BRAINERD       CLOUDY    44  17  33 NE12      30.02S
STAPLES        CLOUDY    45  14  29 NE10      30.01S
LONG PRAIRIE   CLOUDY    41  23  48 NE13G18   30.00S
LITTLE FALLS   CLOUDY    41  21  45 NE3       30.00R
LITCHFIELD     LGT SNOW  36  36 100 NE9G16    29.97R
BUFFALO        LGT RAIN  37  32  83 NE12G17   29.98S
MAPLE LAKE     LGT RAIN  37  33  84 NE10      29.99R
HUTCHINSON     RAIN      37  35  93 NE15      29.96R
$$
MNZ037-044-045-052-053-281600-
   East Central Minnesota

CITY           SKY/WX    TMP DP  RH WIND       PRES   REMARKS
PRINCETON        N/A     39  30  70 E5        29.99S
MORA           CLOUDY    43  21  42 E8        30.02R
CAMBRIDGE      CLOUDY    43  28  56 E2        29.98S
RUSH CITY      CLOUDY    42  23  46 NE10      30.01S
MOOSE LAKE     CLOUDY    43  27  52 NE8G16    30.01S
HINCKLEY       PTSUNNY   46  23  39 E9        30.01S
CLOQUET        CLOUDY    43  18  36 E17G24    30.04S
MCGREGOR       CLOUDY    43  21  42 E12       30.04R
$$
MNZ071>073-080-081-089-090-097-098-281600-
   Southwest Minnesota

CITY           SKY/WX    TMP DP  RH WIND       PRES   REMARKS
MONTEVIDEO     CLOUDY    36  34  93 E9        29.99R
GRANITE FALLS  CLOUDY    39  34  84 NE12      29.98R
CANBY          LGT RAIN  37  36  97 N8        29.99R
MARSHALL       CLOUDY    37  34  89 NE15      29.96
REDWOOD FALLS  CLOUDY    38  32  79 NE12G17   29.95R
OLIVIA         LGT RAIN  36  32  87 NE12      29.95R
PIPESTONE      DRIZZLE   37  36  93 NE10      29.91R
WINDOM         CLOUDY    39  36  87 NE10G16   29.90R
WORTHINGTON    CLOUDY    37  35  92 NE15      29.90R
JACKSON        CLOUDY    37  36  93 NE14      29.89R
TRACY          CLOUDY    38  36  93 NE12      29.94R
SLAYTON        CLOUDY    37  37  97 NE10      29.92R
$$
MNZ065>067-074>077-082>085-091>093-281600-
   South Central Minnesota

CITY           SKY/WX    TMP DP  RH WIND       PRES   REMARKS
MANKATO        CLOUDY    39  32  75 E14G20    29.91R
NEW ULM        CLOUDY    39  36  87 NE15      29.92R
ST JAMES       CLOUDY    36  32  87 NE9       29.91R
FAIRMONT       CLOUDY    39  28  65 NE9       29.88R
GLENCOE        LGT RAIN  37  36  96 NE8       29.95R
FARIBAULT      CLOUDY    37  36  93 NE8G17    29.92R
OWATONNA       CLOUDY    37  34  87 E15G21    29.90R
ALBERT LEA     CLOUDY    39  37  93 E12       29.86R
$$
MNZ078>079-086>088-094>096-281600-
   Southeast Minnesota

CITY           SKY/WX    TMP DP  RH WIND       PRES   REMARKS
ROCHESTER      CLOUDY    39  36  89 E15       29.88R
RED WING       CLOUDY    37  32  81 E12       29.93F
STANTON        CLOUDY    38  33  82 NE13G18   29.92R
DODGE CENTER   CLOUDY    37  36  93 E17       29.89R
WINONA         CLOUDY    41  32  70 E6        29.93R
AUSTIN         CLOUDY    39  36  87 E12       29.86S
PRESTON        CLOUDY    39  33  79 E13       29.88R
$$
ABBREVIATIONS USED IN REMARKS
   TC - TEMPERATURES IN CELSIUS
  WCI - WIND CHILL INDEX
   HX - HEAT INDEX
  VSB - VISIBILITY
$$




USA.gov is the U.S. government's official web portal to all federal, state and local government web resources and services.